AirNav   ATP
 
 500 users online  

9OR1 Shaniko Ranch Airport
Shaniko, Oregon, USA

GOING TO SHANIKO?


FAA INFORMATION EFFECTIVE 06 DECEMBER 2018

Location

FAA Identifier: 9OR1
Lat/Long: 45-00-10.4510N / 120-44-23.1570W
45-00.174183N / 120-44.385950W
45.0029031 / -120.7397658
(estimated)
Elevation: 3300 ft. / 1006 m (estimated)
Variation: 18E (1990)
Time zone: UTC -8 (UTC -7 during Daylight Saving Time)
Zip code: 97001

Airport Operations

Airport use: Private use. Permission required prior to landing
Activation date: 01/1992
Control tower: no
ARTCC: SEATTLE CENTER
FSS: MC MINNVILLE FLIGHT SERVICE STATION
Attendance: UNATNDD
Wind indicator: yes
Segmented circle: no

Airport Services

Runway Information

Runway 11/29

Dimensions: 3100 x 80 ft. / 945 x 24 m
Surface: turf
RUNWAY 11  RUNWAY 29
Traffic pattern: leftleft

Airport Ownership and Management from official FAA records

Ownership: Privately-owned
Owner: DON WHITAKER
P.O. BOX 40
ROSEBURG, OR 97470
Phone 503-459-4602
Manager: DON WHITAKER
P.O. BOX 40
ROSEBURG, OR 97470
Phone 503-673-0419

Instrument Procedures

There are no published instrument procedures at 9OR1.

Some nearby airports with instrument procedures:

S33 - Madras Municipal Airport (27 nm SW)
KDLS - Columbia Gorge Regional/The Dalles Municipal Airport (41 nm NW)
S39 - Prineville Airport (43 nm S)
KRDM - Roberts Field Airport (48 nm S)
9S9 - Lexington Airport (52 nm NE)
 
Loc | Ops | Rwys | IFR | FBO | Links
Com | Nav | Svcs | Stats | Notes


 
Area around 9OR1 (Shaniko Ranch Airport)
 
Road maps at: MapQuest Bing Google
 
Aerial photo
WARNING: Photo may not be current or correct
Aerial photo of 9OR1 (Shaniko Ranch Airport)
Do you have a better or more recent aerial photo of Shaniko Ranch Airport that you would like to share? If so, please send us your photo.

 
Sectional chart

 
Airport distance calculator
Flying to Shaniko Ranch Airport? Find the distance to fly.

From to 9OR1

Sunrise and sunset
Times for 10-Dec-2018
 Local
(UTC-8)
 Zulu
(UTC)
Morning civil twilight06:5814:58
Sunrise07:3115:31
Sunset16:2000:20
Evening civil twilight16:5400:54

Current date and time
Zulu (UTC)  11-Dec-2018 06:08:27
Local (UTC-8)  10-Dec-2018 22:08:27
 
METAR
KS33 
27nm SW 
110555Z AUTO 16005KT 10SM CLR M02/M04 A3027 RMK AO2
KDLS 
41nm NW 
110603Z AUTO 00000KT 2SM BR OVC002 02/01 A3031 RMK AO2 T00220011
KS39 
43nm S 
110555Z AUTO 00000KT 10SM CLR M03/M04 A3025 RMK AO2
KRDM 
48nm S 
110556Z AUTO 17006KT 10SM CLR M01/M03 A3024 RMK AO2 SLP256 T10111033 10061 21028 51000
TAF
KDLS 
41nm NW 
110531Z 1106/1206 VRB03KT 4SM BR BKN005 TEMPO 1106/1110 1SM BR OVC002 FM111000 VRB04KT 2SM BR OVC005 FM111300 VRB05KT 3SM -RA BR BKN014 OVC030 FM111700 32006KT 5SM -RA BKN035 OVC060
KRDM 
48nm S 
110531Z 1106/1206 15004KT P6SM BKN100 FM110800 16007KT P6SM SCT040 BKN080 FM111300 17010KT P6SM VCSH OVC040 FM111700 18012G20KT 6SM -RA BKN035 OVC050
NOTAMs
Click for the latest NOTAMs
NOTAMs are issued by the DoD/FAA and will open in a separate window not controlled by AirNav.

 

 
 

Would you like to see your business listed on this page?

 If your business provides an interesting product or service to pilots, flight crews, aircraft, or users of the Shaniko Ranch Airport, you should consider listing it here.  To start the listing process, click on the button below
 
Add a business
 

Other Pages about Shaniko Ranch Airport

Update a link
 
Copyright © AirNav, LLC. All rights reserved. Privacy Policy  Contact